Time,TemperatureF,DewpointF,PressureIn,WindDirection,WindDirectionDegrees,WindSpeedMPH,WindSpeedGustMPH,Humidity,HourlyPrecipIn,Conditions,Clouds,dailyrainin,SolarRadiationWatts/m^2,SoftwareType,DateUTC
2013-04-01 00:00:00,48.0,25.0,-100.00,WSW,246,7.0,15.0,40,0.00,,,0.00,0.000000,,2013-04-01 07:00:00,
2013-04-01 00:22:00,48.0,25.0,-100.00,WSW,246,7.0,15.0,40,0.00,,,0.00,0.000000,,2013-04-01 07:22:00,
2013-04-01 00:32:00,48.0,25.0,-100.00,WSW,246,7.0,15.0,40,0.00,,,0.00,0.000000,,2013-04-01 07:32:00,
2013-04-01 00:43:00,48.0,25.0,-100.00,WSW,246,7.0,15.0,40,0.00,,,0.00,0.000000,,2013-04-01 07:43:00,
2013-04-01 00:52:00,48.0,25.0,-100.00,WSW,246,7.0,15.0,40,0.00,,,0.00,0.000000,,2013-04-01 07:52:00,
2013-04-01 01:00:00,46.0,25.0,-100.00,WSW,253,7.0,14.0,44,0.00,,,0.00,0.000000,,2013-04-01 08:00:00,
2013-04-01 01:22:00,46.0,25.0,-100.00,WSW,253,7.0,14.0,44,0.00,,,0.00,0.000000,,2013-04-01 08:22:00,
2013-04-01 01:32:00,46.0,25.0,-100.00,WSW,253,7.0,14.0,44,0.00,,,0.00,0.000000,,2013-04-01 08:32:00,
2013-04-01 01:43:00,46.0,25.0,-100.00,WSW,253,7.0,14.0,44,0.00,,,0.00,0.000000,,2013-04-01 08:43:00,
2013-04-01 01:53:00,46.0,25.0,-100.00,WSW,253,7.0,14.0,44,0.00,,,0.00,0.000000,,2013-04-01 08:53:00,
2013-04-01 02:00:00,45.0,28.0,-100.00,WSW,238,6.0,14.0,51,0.00,,,0.00,0.000000,,2013-04-01 09:00:00,
2013-04-01 02:33:00,45.0,28.0,-100.00,WSW,238,6.0,14.0,51,0.00,,,0.00,0.000000,,2013-04-01 09:33:00,
2013-04-01 02:43:00,45.0,28.0,-100.00,WSW,238,6.0,14.0,51,0.00,,,0.00,0.000000,,2013-04-01 09:43:00,
2013-04-01 02:53:00,45.0,28.0,-100.00,WSW,238,6.0,14.0,51,0.00,,,0.00,0.000000,,2013-04-01 09:53:00,
2013-04-01 03:00:00,47.0,29.0,-100.00,SW,216,8.0,15.0,50,0.00,,,0.00,0.000000,,2013-04-01 10:00:00,
2013-04-01 03:34:00,47.0,29.0,-100.00,SW,216,8.0,15.0,50,0.00,,,0.00,0.000000,,2013-04-01 10:34:00,
2013-04-01 03:42:00,47.0,29.0,-100.00,SW,216,8.0,15.0,50,0.00,,,0.00,0.000000,,2013-04-01 10:42:00,
2013-04-01 03:53:00,47.0,29.0,-100.00,SW,216,8.0,15.0,50,0.00,,,0.00,0.000000,,2013-04-01 10:53:00,
2013-04-01 04:00:00,46.0,27.0,-100.00,SW,225,10.0,23.0,47,0.00,,,0.00,0.000000,,2013-04-01 11:00:00,
2013-04-01 04:33:00,46.0,27.0,-100.00,SW,225,10.0,23.0,47,0.00,,,0.00,0.000000,,2013-04-01 11:33:00,
2013-04-01 04:43:00,46.0,27.0,-100.00,SW,225,10.0,23.0,47,0.00,,,0.00,0.000000,,2013-04-01 11:43:00,
2013-04-01 04:53:00,46.0,27.0,-100.00,SW,225,10.0,23.0,47,0.00,,,0.00,0.000000,,2013-04-01 11:53:00,
2013-04-01 05:00:00,44.0,22.0,-100.00,SW,221,9.0,20.0,41,0.00,,,0.00,0.000000,,2013-04-01 12:00:00,
2013-04-01 05:23:00,44.0,22.0,-100.00,SW,221,9.0,20.0,41,0.00,,,0.00,0.000000,,2013-04-01 12:23:00,
2013-04-01 05:32:00,44.0,22.0,-100.00,SW,221,9.0,20.0,41,0.00,,,0.00,0.000000,,2013-04-01 12:32:00,
2013-04-01 05:42:00,44.0,22.0,-100.00,SW,221,9.0,20.0,41,0.00,,,0.00,0.000000,,2013-04-01 12:42:00,
2013-04-01 05:53:00,44.0,22.0,-100.00,SW,221,9.0,20.0,41,0.00,,,0.00,0.000000,,2013-04-01 12:53:00,
2013-04-01 06:00:00,43.0,22.0,-100.00,SW,229,5.0,17.0,43,0.00,,,0.00,0.000000,,2013-04-01 13:00:00,
2013-04-01 06:23:00,43.0,22.0,-100.00,SW,229,5.0,17.0,43,0.00,,,0.00,0.000000,,2013-04-01 13:23:00,
2013-04-01 06:33:00,43.0,22.0,-100.00,SW,229,5.0,17.0,43,0.00,,,0.00,0.000000,,2013-04-01 13:33:00,
2013-04-01 06:42:00,43.0,22.0,-100.00,SW,229,5.0,17.0,43,0.00,,,0.00,0.000000,,2013-04-01 13:42:00,
2013-04-01 06:52:00,43.0,22.0,-100.00,SW,229,5.0,17.0,43,0.00,,,0.00,0.000000,,2013-04-01 13:52:00,
2013-04-01 07:00:00,41.0,22.0,-100.00,WSW,250,5.0,10.0,46,0.00,,,-99.99,0.000000,,2013-04-01 14:00:00,
2013-04-01 07:33:00,41.0,22.0,-100.00,WSW,250,5.0,10.0,46,0.00,,,-99.99,0.000000,,2013-04-01 14:33:00,
2013-04-01 07:42:00,41.0,22.0,-100.00,WSW,250,5.0,10.0,46,0.00,,,-99.99,0.000000,,2013-04-01 14:42:00,
2013-04-01 07:52:00,41.0,22.0,-100.00,WSW,250,5.0,10.0,46,0.00,,,-99.99,0.000000,,2013-04-01 14:52:00,
2013-04-01 08:00:00,46.0,22.0,-100.00,WSW,258,5.0,10.0,39,0.00,,,0.00,19.000000,,2013-04-01 15:00:00,
2013-04-01 08:23:00,46.0,22.0,-100.00,WSW,258,5.0,10.0,39,0.00,,,0.00,19.000000,,2013-04-01 15:23:00,
2013-04-01 08:34:00,46.0,22.0,-100.00,WSW,258,5.0,10.0,39,0.00,,,0.00,19.000000,,2013-04-01 15:34:00,
2013-04-01 08:43:00,46.0,22.0,-100.00,WSW,258,5.0,10.0,39,0.00,,,0.00,19.000000,,2013-04-01 15:43:00,
2013-04-01 08:53:00,46.0,22.0,-100.00,WSW,258,5.0,10.0,39,0.00,,,0.00,19.000000,,2013-04-01 15:53:00,
2013-04-01 10:00:00,53.0,22.0,-100.00,SSW,198,4.0,12.0,29,-99.99,,,0.00,598.000000,,2013-04-01 17:00:00,
2013-04-01 10:32:00,53.0,22.0,-100.00,SSW,198,4.0,12.0,29,-99.99,,,0.00,598.000000,,2013-04-01 17:32:00,
2013-04-01 10:42:00,53.0,22.0,-100.00,SSW,198,4.0,12.0,29,-99.99,,,0.00,598.000000,,2013-04-01 17:42:00,
2013-04-01 10:52:00,53.0,22.0,-100.00,SSW,198,4.0,12.0,29,-99.99,,,0.00,598.000000,,2013-04-01 17:52:00,
2013-04-01 11:00:00,56.0,23.0,-100.00,SW,233,6.0,14.0,27,0.00,,,0.00,858.000000,,2013-04-01 18:00:00,
2013-04-01 11:33:00,56.0,23.0,-100.00,SW,233,6.0,14.0,27,0.00,,,0.00,858.000000,,2013-04-01 18:33:00,
2013-04-01 11:43:00,56.0,23.0,-100.00,SW,233,6.0,14.0,27,0.00,,,0.00,858.000000,,2013-04-01 18:43:00,
2013-04-01 11:53:00,56.0,23.0,-100.00,SW,233,6.0,14.0,27,0.00,,,0.00,858.000000,,2013-04-01 18:53:00,
2013-04-01 12:00:00,58.0,6.0,-100.00,WSW,257,12.0,23.0,12,0.00,,,0.00,1093.000000,,2013-04-01 19:00:00,
2013-04-01 12:32:00,58.0,6.0,-100.00,WSW,257,12.0,23.0,12,0.00,,,0.00,1093.000000,,2013-04-01 19:32:00,
2013-04-01 12:42:00,58.0,6.0,-100.00,WSW,257,12.0,23.0,12,0.00,,,0.00,1093.000000,,2013-04-01 19:42:00,
2013-04-01 12:53:00,58.0,6.0,-100.00,WSW,257,12.0,23.0,12,0.00,,,0.00,1093.000000,,2013-04-01 19:53:00,
2013-04-01 13:00:00,56.0,9.0,-100.00,West,264,15.0,27.0,15,0.00,,,0.00,1228.000000,,2013-04-01 20:00:00,
2013-04-01 13:33:00,56.0,9.0,-100.00,West,264,15.0,27.0,15,0.00,,,0.00,1228.000000,,2013-04-01 20:33:00,
2013-04-01 13:43:00,56.0,9.0,-100.00,West,264,15.0,27.0,15,0.00,,,0.00,1228.000000,,2013-04-01 20:43:00,
2013-04-01 13:52:00,56.0,9.0,-100.00,West,264,15.0,27.0,15,0.00,,,0.00,1228.000000,,2013-04-01 20:52:00,
2013-04-01 14:00:00,59.0,0.0,-100.00,West,263,14.0,27.0,9,0.00,,,0.00,1269.000000,,2013-04-01 21:00:00,
2013-04-01 14:33:00,59.0,0.0,-100.00,West,263,14.0,27.0,9,0.00,,,0.00,1269.000000,,2013-04-01 21:33:00,
2013-04-01 14:43:00,59.0,0.0,-100.00,West,263,14.0,27.0,9,0.00,,,0.00,1269.000000,,2013-04-01 21:43:00,
2013-04-01 14:53:00,59.0,0.0,-100.00,West,263,14.0,27.0,9,0.00,,,0.00,1269.000000,,2013-04-01 21:53:00,
2013-04-01 15:00:00,58.0,-3.0,-100.00,West,260,17.0,32.0,8,0.00,,,0.00,1219.000000,,2013-04-01 22:00:00,
2013-04-01 15:33:00,58.0,-3.0,-100.00,West,260,17.0,32.0,8,0.00,,,0.00,1219.000000,,2013-04-01 22:33:00,
2013-04-01 15:43:00,58.0,-3.0,-100.00,West,260,17.0,32.0,8,0.00,,,0.00,1219.000000,,2013-04-01 22:43:00,
2013-04-01 15:52:00,58.0,-3.0,-100.00,West,260,17.0,32.0,8,0.00,,,0.00,1219.000000,,2013-04-01 22:52:00,
2013-04-01 16:00:00,58.0,2.0,-100.00,WSW,248,14.0,29.0,10,0.00,,,0.00,1103.000000,,2013-04-01 23:00:00,
2013-04-01 16:32:00,58.0,2.0,-100.00,WSW,248,14.0,29.0,10,0.00,,,0.00,1103.000000,,2013-04-01 23:32:00,
2013-04-01 16:43:00,58.0,2.0,-100.00,WSW,248,14.0,29.0,10,0.00,,,0.00,1103.000000,,2013-04-01 23:43:00,
2013-04-01 16:53:00,58.0,2.0,-100.00,WSW,248,14.0,29.0,10,0.00,,,0.00,1103.000000,,2013-04-01 23:53:00,
2013-04-01 17:00:00,54.0,13.0,-100.00,West,266,12.0,27.0,19,0.00,,,0.00,888.000000,,2013-04-02 00:00:00,
2013-04-01 17:22:00,54.0,13.0,-100.00,West,266,12.0,27.0,19,0.00,,,0.00,888.000000,,2013-04-02 00:22:00,
2013-04-01 17:33:00,54.0,13.0,-100.00,West,266,12.0,27.0,19,0.00,,,0.00,888.000000,,2013-04-02 00:33:00,
2013-04-01 17:43:00,54.0,13.0,-100.00,West,266,12.0,27.0,19,0.00,,,0.00,888.000000,,2013-04-02 00:43:00,
2013-04-01 17:53:00,54.0,13.0,-100.00,West,266,12.0,27.0,19,0.00,,,0.00,888.000000,,2013-04-02 00:53:00,
2013-04-01 18:00:00,50.0,16.0,-100.00,WNW,293,14.0,23.0,26,0.00,,,0.00,366.000000,,2013-04-02 01:00:00,
2013-04-01 18:22:00,50.0,16.0,-100.00,WNW,293,14.0,23.0,26,0.00,,,0.00,366.000000,,2013-04-02 01:22:00,
2013-04-01 18:32:00,50.0,16.0,-100.00,WNW,293,14.0,23.0,26,0.00,,,0.00,366.000000,,2013-04-02 01:32:00,
2013-04-01 18:43:00,50.0,16.0,-100.00,WNW,293,14.0,23.0,26,0.00,,,0.00,366.000000,,2013-04-02 01:43:00,
2013-04-01 18:52:00,50.0,16.0,-100.00,WNW,293,14.0,23.0,26,0.00,,,0.00,366.000000,,2013-04-02 01:52:00,
2013-04-01 19:00:00,46.0,21.0,-100.00,WNW,303,13.0,28.0,36,0.00,,,0.00,127.000000,,2013-04-02 02:00:00,
2013-04-01 19:33:00,46.0,21.0,-100.00,WNW,303,13.0,28.0,36,0.00,,,0.00,127.000000,,2013-04-02 02:33:00,
2013-04-01 19:42:00,46.0,21.0,-100.00,WNW,303,13.0,28.0,36,0.00,,,0.00,127.000000,,2013-04-02 02:42:00,
2013-04-01 19:52:00,46.0,21.0,-100.00,WNW,303,13.0,28.0,36,0.00,,,0.00,127.000000,,2013-04-02 02:52:00,
2013-04-01 20:00:00,42.0,26.0,-100.00,NW,321,12.0,23.0,53,0.00,,,0.00,36.000000,,2013-04-02 03:00:00,
2013-04-01 20:22:00,42.0,26.0,-100.00,NW,321,12.0,23.0,53,0.00,,,0.00,36.000000,,2013-04-02 03:22:00,
2013-04-01 20:33:00,42.0,26.0,-100.00,NW,321,12.0,23.0,53,0.00,,,0.00,36.000000,,2013-04-02 03:33:00,
2013-04-01 20:43:00,42.0,26.0,-100.00,NW,321,12.0,23.0,53,0.00,,,0.00,36.000000,,2013-04-02 03:43:00,
2013-04-01 20:53:00,42.0,26.0,-100.00,NW,321,12.0,23.0,53,0.00,,,0.00,36.000000,,2013-04-02 03:53:00,
2013-04-01 21:00:00,39.0,24.0,-100.00,NNW,334,10.0,25.0,55,0.00,,,0.00,0.000000,,2013-04-02 04:00:00,
2013-04-01 21:23:00,39.0,24.0,-100.00,NNW,334,10.0,25.0,55,0.00,,,0.00,0.000000,,2013-04-02 04:23:00,
2013-04-01 21:33:00,39.0,24.0,-100.00,NNW,334,10.0,25.0,55,0.00,,,0.00,0.000000,,2013-04-02 04:33:00,
2013-04-01 21:43:00,39.0,24.0,-100.00,NNW,334,10.0,25.0,55,0.00,,,0.00,0.000000,,2013-04-02 04:43:00,
2013-04-01 21:53:00,39.0,24.0,-100.00,NNW,334,10.0,25.0,55,0.00,,,0.00,0.000000,,2013-04-02 04:53:00,
2013-04-01 22:00:00,40.0,25.0,-100.00,NW,326,11.0,21.0,55,0.00,,,0.00,0.000000,,2013-04-02 05:00:00,
2013-04-01 22:23:00,40.0,25.0,-100.00,NW,326,11.0,21.0,55,0.00,,,0.00,0.000000,,2013-04-02 05:23:00,
2013-04-01 22:32:00,40.0,25.0,-100.00,NW,326,11.0,21.0,55,0.00,,,0.00,0.000000,,2013-04-02 05:32:00,
2013-04-01 22:43:00,40.0,25.0,-100.00,NW,326,11.0,21.0,55,0.00,,,0.00,0.000000,,2013-04-02 05:43:00,
2013-04-01 22:52:00,40.0,25.0,-100.00,NW,326,11.0,21.0,55,0.00,,,0.00,0.000000,,2013-04-02 05:52:00,
2013-04-01 23:00:00,38.0,25.0,-100.00,NNW,332,5.0,20.0,59,0.00,,,0.00,0.000000,,2013-04-02 06:00:00,
2013-04-01 23:22:00,38.0,25.0,-100.00,NNW,332,5.0,20.0,59,0.00,,,0.00,0.000000,,2013-04-02 06:22:00,
2013-04-01 23:32:00,38.0,25.0,-100.00,NNW,332,5.0,20.0,59,0.00,,,0.00,0.000000,,2013-04-02 06:32:00,
2013-04-01 23:42:00,38.0,25.0,-100.00,NNW,332,5.0,20.0,59,0.00,,,0.00,0.000000,,2013-04-02 06:42:00,
2013-04-01 23:52:00,38.0,25.0,-100.00,NNW,332,5.0,20.0,59,0.00,,,0.00,0.000000,,2013-04-02 06:52:00,